Salem, OR

8:55 AM PST on November 13, 2019 (GMT -0800)
McNary

Weather History for KSLE - October, 2019

Change the Weather History Date:

Friday, October 18, 2019

  Actual Average Record
Temperature  
Mean Temperature 54 °F 52 °F  
Max Temperature 59 °F 63 °F 84 °F (1940)
Min Temperature 48 °F 42 °F 28 °F (1945)
Degree Days  
Heating Degree Days 12 13  
Month to date heating degree days 257 177  
Since 1 July heating degree days 382 342  
Cooling Degree Days 0 0  
Month to date cooling degree days 0 0  
Year to date cooling degree days 360 289  
Growing Degree Days 4 (Base 50)    
Moisture  
Dew Point 48 °F    
Average Humidity 86    
Maximum Humidity 93    
Minimum Humidity 67    
Precipitation  
Precipitation 0.68 in 0.10 in 1.53 in (1979)
Month to date precipitation 2.05 1.35  
Year to date precipitation 24.74 24.63  
Sea Level Pressure  
Sea Level Pressure 29.96 in    
Wind  
Wind Speed 9 mph ()    
Max Wind Speed 22 mph    
Max Gust Speed 27 mph    
Visibility 9.1 miles    
Events Rain    
T = Trace of Precipitation, MM = Missing Value Source: Averaged Metar Reports

Daily Weather History Graph

Daily Weather History Graph

Search for Another Location

Airport or City:

Astronomy

Oct. 18, 2019 Rise Set
Actual Time 7:31 AM PDT 6:22 PM PDT
Civil Twilight 7:01 AM PDT 6:51 PM PDT
Nautical Twilight 6:27 AM PDT 7:25 PM PDT
Astronomical Twilight 5:53 AM PDT 7:59 PM PDT
Moon 9:33 PM PDT (10/18) 12:19 PM PDT (10/18)
Length of Visible Light 11h 50m
Length of Day
10h 50m
Waning Gibbous, 78% of the Moon is Illuminated
Oct 18
Waning Gibbous
Oct 21
Last Quarter
Oct 27
New
Nov 4
First Quarter
Nov 12
Full

Hourly Weather History & Observations

Time (PDT) Temp. Dew Point Humidity Pressure Visibility Wind Dir Wind Speed Gust Speed Precip Events Conditions
12:56 AM 50.0 °F 46.9 °F 89% 29.94 in 10.0 mi South 11.5 mph - N/A   Clear
1:56 AM 50.0 °F 46.9 °F 89% 29.96 in 10.0 mi South 10.4 mph - N/A   Overcast
2:56 AM 48.9 °F 46.0 °F 90% 29.97 in 10.0 mi South 6.9 mph - 0.00 in   Mostly Cloudy
3:56 AM 48.9 °F 46.0 °F 90% 29.98 in 10.0 mi SSW 9.2 mph - N/A   Scattered Clouds
4:56 AM 50.0 °F 46.9 °F 89% 29.99 in 10.0 mi SSW 9.2 mph - 0.00 in   Overcast
5:56 AM 50.0 °F 46.9 °F 89% 29.99 in 10.0 mi SSW 8.1 mph - 0.01 in   Overcast
6:25 AM 50.0 °F 46.9 °F 89% 29.99 in 10.0 mi South 5.8 mph - 0.00 in   Overcast
6:39 AM 48.9 °F 46.9 °F 93% 29.99 in 10.0 mi SSE 8.1 mph - 0.00 in Rain Light Rain
6:54 AM 48.2 °F 46.4 °F 93% 29.99 in 10.0 mi SSE 9.2 mph - 0.00 in   Overcast
6:56 AM 48.9 °F 46.0 °F 90% 30.00 in 10.0 mi SSE 10.4 mph - 0.00 in   Overcast
7:56 AM 48.0 °F 46.0 °F 93% 29.99 in 10.0 mi South 9.2 mph - 0.00 in   Mostly Cloudy
8:56 AM 50.0 °F 46.9 °F 89% 30.01 in 10.0 mi South 9.2 mph - N/A   Mostly Cloudy
9:56 AM 53.1 °F 48.0 °F 83% 30.01 in 10.0 mi South 13.8 mph - N/A   Mostly Cloudy
10:56 AM 53.1 °F 48.0 °F 83% 30.02 in 4.0 mi SSW 11.5 mph - 0.01 in Rain Light Rain
11:56 AM 55.9 °F 48.9 °F 77% 30.00 in 10.0 mi South 13.8 mph 21.9 mph 0.01 in   Mostly Cloudy
12:56 PM 59.0 °F 48.0 °F 67% 29.99 in 10.0 mi South 16.1 mph - N/A   Mostly Cloudy
1:56 PM 55.9 °F 46.9 °F 72% 29.99 in 10.0 mi SSW 17.3 mph - 0.00 in Rain Light Rain
2:07 PM 55.0 °F 48.0 °F 77% 29.98 in 5.0 mi South 8.1 mph - 0.01 in Rain Rain
2:56 PM 53.1 °F 48.9 °F 86% 29.99 in 5.0 mi WSW 9.2 mph - 0.09 in Rain Light Rain
3:56 PM 54.0 °F 50.0 °F 86% 29.97 in 8.0 mi South 5.8 mph - 0.04 in Rain Light Rain
4:56 PM 54.0 °F 50.0 °F 86% 29.97 in 10.0 mi South 8.1 mph - 0.02 in Rain Light Rain
5:56 PM 53.1 °F 50.0 °F 89% 29.96 in 7.0 mi South 6.9 mph - 0.02 in Rain Light Rain
6:56 PM 53.1 °F 48.9 °F 86% 29.94 in 10.0 mi South 9.2 mph - 0.01 in Rain Light Rain
7:56 PM 52.0 °F 48.9 °F 89% 29.92 in 10.0 mi South 10.4 mph - 0.00 in   Overcast
8:56 PM 52.0 °F 48.9 °F 89% 29.90 in 10.0 mi SSE 6.9 mph - 0.04 in   Overcast
9:56 PM 52.0 °F 48.9 °F 89% 29.87 in 10.0 mi South 11.5 mph - 0.04 in Rain Light Rain
10:56 PM 52.0 °F 48.0 °F 86% 29.84 in 10.0 mi South 11.5 mph - 0.01 in Rain Light Rain
11:56 PM 52.0 °F 48.9 °F 89% 29.82 in 5.0 mi SSW 9.2 mph - 0.15 in Rain Rain